TimeEDT,TemperatureF,Dew PointF,Humidity,Sea Level PressureIn,VisibilityMPH,Wind Direction,Wind SpeedMPH,Gust SpeedMPH,PrecipitationIn,Events,Conditions,WindDirDegrees,DateUTC
12:54 AM,46.9,30.9,54,30.14,10.0,SSE,8.1,-,N/A,,Mostly Cloudy,150,2013-03-31 04:54:00
1:54 AM,45.0,30.9,58,30.12,10.0,SE,9.2,-,N/A,,Mostly Cloudy,140,2013-03-31 05:54:00
2:54 AM,45.0,30.9,58,30.10,10.0,SE,6.9,-,N/A,,Overcast,140,2013-03-31 06:54:00
3:54 AM,45.0,32.0,60,30.08,10.0,SE,5.8,-,N/A,,Overcast,140,2013-03-31 07:54:00
4:54 AM,45.0,33.1,63,30.06,10.0,SE,5.8,-,N/A,,Overcast,140,2013-03-31 08:54:00
5:54 AM,46.0,35.1,66,30.05,10.0,SSE,6.9,-,N/A,,Overcast,160,2013-03-31 09:54:00
6:54 AM,46.0,37.0,71,30.04,10.0,SE,6.9,-,N/A,,Overcast,140,2013-03-31 10:54:00
7:54 AM,46.9,37.9,71,30.03,10.0,SE,8.1,-,N/A,,Overcast,130,2013-03-31 11:54:00
8:54 AM,50.0,39.0,66,30.04,10.0,South,5.8,-,N/A,,Overcast,170,2013-03-31 12:54:00
9:28 AM,46.4,42.8,87,30.02,2.5,SSE,5.8,-,0.01,Rain,Light Rain,160,2013-03-31 13:28:00
9:54 AM,46.9,44.1,90,30.02,2.5,SSE,6.9,-,0.07,Rain,Rain,150,2013-03-31 13:54:00
10:36 AM,48.2,46.4,93,29.95,3.0,ESE,11.5,-,0.14,Rain,Light Rain,120,2013-03-31 14:36:00
10:54 AM,48.9,46.9,93,29.95,6.0,ESE,13.8,-,0.16,Rain,Light Rain,120,2013-03-31 14:54:00
11:32 AM,48.2,46.4,93,29.92,4.0,SE,10.4,-,0.00,Rain,Light Rain,140,2013-03-31 15:32:00
11:39 AM,48.2,46.4,93,29.92,2.5,SE,10.4,-,0.00,Rain,Light Rain,140,2013-03-31 15:39:00
11:54 AM,48.9,46.9,93,29.93,2.5,SE,9.2,-,0.01,Rain,Light Rain,130,2013-03-31 15:54:00
11:56 AM,48.2,46.4,93,29.91,1.5,ESE,8.1,-,0.00,Rain,Light Rain,120,2013-03-31 15:56:00
12:54 PM,50.0,48.0,93,29.89,1.5,SSE,8.1,-,0.09,,Overcast,160,2013-03-31 16:54:00
1:54 PM,52.0,50.0,93,29.85,1.5,South,6.9,-,N/A,,Overcast,180,2013-03-31 17:54:00
2:54 PM,54.0,52.0,93,29.82,1.5,SSW,8.1,-,N/A,,Overcast,200,2013-03-31 18:54:00
3:54 PM,55.9,53.1,90,29.82,1.5,WSW,9.2,-,N/A,,Overcast,240,2013-03-31 19:54:00
3:59 PM,57.2,53.6,88,29.81,6.0,WSW,9.2,-,N/A,,Overcast,240,2013-03-31 19:59:00
4:54 PM,57.9,53.1,84,29.83,7.0,WSW,9.2,-,N/A,,Overcast,250,2013-03-31 20:54:00
5:35 PM,59.0,53.6,82,29.80,7.0,WSW,10.4,-,N/A,,Overcast,240,2013-03-31 21:35:00
5:54 PM,59.0,52.0,78,29.81,7.0,WSW,9.2,-,N/A,,Overcast,250,2013-03-31 21:54:00
6:54 PM,57.9,52.0,81,29.81,6.0,WSW,5.8,-,N/A,,Haze,250,2013-03-31 22:54:00
7:54 PM,54.0,51.1,90,29.79,6.0,South,3.5,-,N/A,,Overcast,180,2013-03-31 23:54:00
8:54 PM,54.0,52.0,93,29.79,9.0,Calm,Calm,-,N/A,,Mostly Cloudy,0,2013-04-01 00:54:00
9:54 PM,52.0,51.1,97,29.82,9.0,SSW,5.8,-,N/A,,Mostly Cloudy,210,2013-04-01 01:54:00
10:54 PM,53.1,51.1,93,29.81,8.0,Calm,Calm,-,N/A,,Mostly Cloudy,0,2013-04-01 02:54:00
11:27 PM,50.0,48.2,94,29.79,8.0,Calm,Calm,-,N/A,Fog,Shallow Fog,0,2013-04-01 03:27:00
11:54 PM,50.0,50.0,100,29.81,1.0,Calm,Calm,-,N/A,,Mostly Cloudy,0,2013-04-01 03:54:00